Amarillo, TX

8:49 PM CDT on July 18, 2019 (GMT -0500)
Amarillo International

Weather History for KAMA - May, 2019

Change the Weather History Date:

Wednesday, May 29, 2019

  Actual Average Record
Temperature  
Mean Temperature 60 °F 70 °F  
Max Temperature 70 °F 83 °F 104 °F (2011)
Min Temperature 50 °F 56 °F 36 °F (1947)
Degree Days  
Heating Degree Days 5 1  
Month to date heating degree days 116 81  
Since 1 July heating degree days 4099 4169  
Cooling Degree Days 0 6  
Month to date cooling degree days 45 92  
Year to date cooling degree days 61 113  
Growing Degree Days 10 (Base 50)    
Moisture  
Dew Point 47 °F    
Average Humidity 56    
Maximum Humidity 86    
Minimum Humidity 26    
Precipitation  
Precipitation 0.00 in 0.11 in 2.90 in (1911)
Month to date precipitation 3.35 2.08  
Year to date precipitation 7.44 6.15  
Snow  
Snow 0.00 in 0.00 in 0.00 in ()
Month to date snowfall 0.0 0.2  
Since 1 July snowfall 8.1 17.8  
Snow Depth 0.00 in    
Sea Level Pressure  
Sea Level Pressure 29.82 in    
Wind  
Wind Speed 14 mph (North)    
Max Wind Speed 25 mph    
Max Gust Speed 29 mph    
Visibility 10 miles    
Events      
T = Trace of Precipitation, MM = Missing Value Source: NWS Daily Summary

Daily Weather History Graph

Daily Weather History Graph

Search for Another Location

Airport or City:

Astronomy

May. 29, 2019 Rise Set
Actual Time 6:34 AM CDT 8:54 PM CDT
Civil Twilight 6:05 AM CDT 9:23 PM CDT
Nautical Twilight 5:29 AM CDT 9:59 PM CDT
Astronomical Twilight 4:50 AM CDT 10:38 PM CDT
Moon 4:00 AM CDT (5/29) 4:17 PM CDT (5/29)
Length of Visible Light 15h 17m
Length of Day
14h 19m
Waning Crescent, 23% of the Moon is Illuminated
May 29
Waning Crescent
Jun 3
New
Jun 10
First Quarter
Jun 17
Full
Jun 25
Last Quarter

Hourly Weather History & Observations

Time (CDT) Temp. Dew Point Humidity Pressure Visibility Wind Dir Wind Speed Gust Speed Precip Events Conditions
2:53 AM 57.9 °F 39.0 °F 49% 29.67 in 10.0 mi North 16.1 mph - N/A   Clear
3:53 AM 54.0 °F 48.9 °F 83% 29.72 in 10.0 mi North 13.8 mph - N/A   Clear
4:53 AM 53.1 °F 48.0 °F 83% 29.74 in 10.0 mi North 16.1 mph - N/A   Clear
5:53 AM 51.1 °F 46.9 °F 86% 29.73 in 10.0 mi North 17.3 mph - N/A   Clear
6:53 AM 50.0 °F 46.0 °F 86% 29.78 in 10.0 mi North 9.2 mph - N/A   Clear
7:53 AM 51.1 °F 46.0 °F 83% 29.78 in 10.0 mi North 15.0 mph - N/A   Clear
8:53 AM 53.1 °F 46.0 °F 77% 29.79 in 10.0 mi North 19.6 mph - N/A   Clear
9:53 AM 53.1 °F 45.0 °F 74% 29.82 in 10.0 mi North 23.0 mph 28.8 mph N/A   Clear
10:53 AM 57.9 °F 46.0 °F 65% 29.81 in 10.0 mi North 20.7 mph - N/A   Clear
11:53 AM 62.1 °F 48.9 °F 62% 29.81 in 10.0 mi North 16.1 mph 24.2 mph N/A   Clear
12:53 PM 64.0 °F 48.9 °F 58% 29.84 in 10.0 mi NNW 20.7 mph 27.6 mph N/A   Clear
1:53 PM 64.9 °F 50.0 °F 58% 29.83 in 10.0 mi North 19.6 mph 26.5 mph N/A   Partly Cloudy
2:53 PM 60.1 °F 48.9 °F 67% 29.84 in 10.0 mi NNE 15.0 mph - N/A   Scattered Clouds
3:53 PM 66.9 °F 50.0 °F 54% 29.81 in 10.0 mi North 17.3 mph - N/A   Clear
4:53 PM 68.0 °F 50.0 °F 52% 29.80 in 10.0 mi NNE 17.3 mph 25.3 mph N/A   Clear
5:53 PM 69.1 °F 50.0 °F 51% 29.83 in 10.0 mi NNE 15.0 mph - N/A   Clear
6:53 PM 68.0 °F 48.9 °F 50% 29.84 in 10.0 mi NNE 13.8 mph - N/A   Partly Cloudy
7:53 PM 64.9 °F 48.0 °F 54% 29.87 in 10.0 mi North 11.5 mph - N/A   Clear
8:53 PM 59.0 °F 48.9 °F 69% 29.91 in 10.0 mi NNE 6.9 mph - N/A   Clear
9:53 PM 55.0 °F 48.0 °F 77% 29.94 in 10.0 mi NE 8.1 mph - N/A   Clear
10:53 PM 54.0 °F 46.9 °F 77% 29.95 in 10.0 mi ENE 8.1 mph - N/A   Clear
11:53 PM 54.0 °F 46.0 °F 75% 29.96 in 10.0 mi East 6.9 mph - N/A   Clear